Location: Edoum�
(0.9447°N, 10.6482°E)
Time: 01:11:59
(UTC+00:00)

Daily predictions for brighter satellites

Satellite Brightness Start Highest point End
(mag) Time Altitude Azimuth Time Altitude Azimuth Time Altitude Azimuth
Atlas Centaur 2 4.5 02:08:33 19° E 02:08:33 19° E 02:10:03 10° ENE
Centaur AC-72 4.1 02:34:25 52° WNW 02:37:12 63° NNW 02:43:51 10° ENE
CZ-2C R/B 3.8 02:40:48 10° NNE 02:44:15 37° NE 02:44:15 37° NE
Ariane 3 Deb 4.4 02:45:50 62° S 02:45:50 62° S 03:14:09 10° E
USA 234 3.4 02:49:42 10° NNE 02:55:34 61° NNW 02:55:34 61° NNW
Cosmos 1727 Rocket 4.0 02:56:41 10° N 03:02:49 74° E 03:04:23 52° SSE
CZ-3A R/B 4.2 03:06:45 15° NNW 03:09:15 19° N 03:17:03 10° NE
GPS 2-15 Rocket1 3.7 03:10:21 54° ENE 03:10:21 54° ENE 03:14:03 10° ENE
H-2A R/B 4.3 03:14:21 16° NNW 03:14:21 16° NNW 03:15:12 10° NNW
Delta 2 Rocket 3.9 03:16:30 76° SE 03:16:31 76° SE 03:22:09 10° ENE
ADEOS 3.5 03:14:05 10° N 03:18:58 71° NW 03:18:58 71° NW
USA 229 DEB 3.8 03:13:13 10° NNW 03:20:48 64° WSW 03:28:24 10° SSE
USA 229 3.8 03:13:19 10° NNW 03:20:54 65° WSW 03:28:32 10° SSE
STARLINK-1181 4.3 03:22:46 46° E 03:22:46 46° E 03:26:07 10° NE
NOSS 3-1 (C) 4.3 03:13:52 10° NW 03:22:30 59° WSW 03:31:10 10° S
GEOS 3 Rocket 3.4 03:18:40 10° SSE 03:23:44 87° WSW 03:28:51 10° NNW
STARLINK-1183 4.0 03:26:38 55° ESE 03:26:38 55° ESE 03:30:12 10° NE
Sich 1 3.2 03:27:26 58° SSE 03:28:08 70° E 03:32:25 10° N
Cosmos 1484 Rocket 3.7 03:26:11 10° NNE 03:30:01 48° E 03:31:21 34° SSE
NOSS 3-1 (A) 4.2 03:21:55 10° NNW 03:30:46 82° WSW 03:39:40 10° SSE
Iridium 4 Rocket 3.7 03:33:04 46° NW 03:33:04 46° NW 03:36:54 10° NNW
Cosmos 2237 Rocket 3.5 03:34:34 23° NW 03:34:34 23° NW 03:37:46 10° NNW
STARLINK-1194 3.4 03:35:35 78° SE 03:35:38 78° ESE 03:39:33 10° NE
STARLINK-1193 3.3 03:39:25 81° SSW 03:39:37 89° ESE 03:43:34 10° NE
Cosmos 1515 Rocket 3.4 03:37:20 10° NNW 03:41:37 65° W 03:42:12 57° SW
PEGASUS R/B 4.4 03:39:04 10° NNE 03:41:37 56° ESE 03:42:16 45° SSE
STARLINK-1184 3.3 03:43:14 72° WSW 03:43:35 81° NW 03:47:30 10° NNE
ARIANE 5 R/B 2.0 03:44:54 68° W 03:45:17 87° S 03:53:50 10° E
Delta 168 2.4 03:46:53 61° NW 03:46:58 61° NNW 03:50:42 10° NE
STARLINK-1127 3.4 03:47:03 61° WSW 03:47:33 71° NW 03:51:28 10° NNE
ARIANE 5 DEB (SYLDA) 4.5 03:44:48 28° W 03:48:07 82° N 04:25:20 10° E
ARIANE 5 R/B 1.5 03:50:08 51° S 03:50:08 51° S 03:55:04 10° E
Ariane H10+ 3.8 03:47:36 28° WNW 03:50:53 69° N 03:59:48 10° E
FENGYUN 3A 3.7 03:45:50 10° NNE 03:51:15 81° ESE 03:56:42 10° S
STARLINK-1142 3.5 03:50:55 52° WSW 03:51:34 62° NW 03:55:28 10° NNE
Atlas Centaur 2 3.0 03:51:09 26° WNW 03:53:30 36° NW 03:58:08 10° NNE
Meteor PRIRODA 4.2 03:50:10 10° NNE 03:53:43 56° E 03:56:37 15° S
CZ-4B R/B 2.5 03:50:38 10° NNE 03:54:13 87° ESE 03:56:10 26° S
SL-16 R/B 2.2 03:52:50 29° SW 03:55:36 58° WNW 04:01:08 10° N
STARLINK-1137 3.7 03:54:50 45° W 03:55:37 54° NW 03:59:28 10° NNE
Cosmos 1000 Rocket 4.5 03:53:03 10° NNW 03:59:14 64° W 04:05:29 10° S
STARLINK-1195 3.9 03:58:48 38° W 03:59:46 47° NW 04:03:35 10° NNE
STARLINK-60 4.2 03:58:54 10° NNW 04:01:57 43° NE 04:05:01 10° SE
Cosmos 1844 Rocket 2.8 03:56:41 10° NNW 04:02:01 49° WSW 04:07:22 10° S
STARLINK-1152 4.0 04:02:52 33° W 04:03:59 41° NW 04:07:44 10° NNE
SJ-12 3.9 04:03:29 10° N 04:07:36 89° NW 04:11:46 10° SSW
Cosmos 1633 Rocket 3.1 04:08:12 13° SSW 04:12:00 57° W 04:16:16 10° N
Cosmos 1689 Rocket 2.5 04:09:20 10° SSE 04:12:13 62° ENE 04:15:06 10° N
Meteor 2-6 Rocket 4.3 04:08:00 10° N 04:13:37 77° E 04:19:06 10° S
ARIANE 5 R/B 3.7 03:41:07 10° W 04:15:01 86° S 04:19:17 10° E
Cosmos 1666 Rocket 4.2 04:15:06 17° SW 04:18:01 35° W 04:22:05 10° NNW
Skynet4D Del rocket 4.4 04:14:23 10° NW 04:20:05 51° NNE 04:25:20 10° ESE
SPELTRA 3.8 04:07:43 10° W 04:23:59 73° SSW 04:28:12 10° ESE
Cosmos 2278 Rocket 4.1 04:19:29 10° N 04:24:32 34° ENE 04:29:35 10° SE
Meteor 2-20 4.4 04:19:31 10° N 04:25:36 77° W 04:31:44 10° S
Cosmos 1603 4.5 04:21:29 10° S 04:26:55 53° ESE 04:32:20 10° NNE
DELTA 2 R/B (1) 4.2 04:22:51 10° SSW 04:28:12 52° SE 04:33:37 10° ENE
ALOS 3.2 04:27:06 10° NNW 04:31:06 29° WNW 04:35:08 10° SW
Cosmos 2123 Rocket 4.1 04:26:00 10° NNW 04:32:04 56° W 04:38:07 10° S
ISO 2.0 04:29:52 12° W 04:33:14 78° S 04:37:40 10° E
DELTA 2 R/B(2) 3.4 04:34:27 12° SW 04:36:51 69° SE 04:38:48 10° NE
Cosmos 405 3.3 04:34:40 10° NNW 04:38:01 42° W 04:41:23 10° SSW
CZ-4B R/B 3.1 04:37:39 12° WSW 04:38:05 12° WSW 04:39:17 10° WNW
STARLINK-1177 4.5 04:34:46 10° SSW 04:38:46 48° SE 04:42:45 10° NE
GPS 2-14 Rocket1 4.4 04:36:59 11° SW 04:39:06 16° SSW 04:41:26 10° SSE
Cosmos 2228 Rocket 4.4 04:38:45 10° NW 04:42:08 21° W 04:45:33 10° SW
STARLINK-1167 4.2 04:39:40 10° SSW 04:43:44 57° SE 04:47:47 10° NE
SL-4 R/B 2.0 04:39:37 10° NW 04:43:50 59° SW 04:47:43 10° SSE
ARIANE 5 R/B 0.6 04:43:12 10° W 04:45:08 80° S 04:48:10 10° E
OAO 2 Rocket 4.2 04:41:29 10° WSW 04:45:58 34° NW 04:50:25 10° NNE
Genesis I 3.4 04:44:21 10° SSW 04:48:12 56° WNW 04:52:02 10° N
STARLINK-1168 3.9 04:44:35 10° SSW 04:48:42 67° SE 04:52:48 10° NE
Cosmos 494 Rocket 4.2 04:43:55 10° SSW 04:49:03 55° WNW 04:54:10 10° N
Cosmos 2056 Rocket 4.1 04:44:44 10° N 04:50:03 67° ENE 04:55:26 10° SSE
Centaur D-1A AC-31 4.3 04:49:26 10° NW 04:54:24 17° N 04:57:18 10° NE
ARIANE 5 R/B 4.0 05:21:58 10° W 05:53:05 74° N 05:57:13 10° E
